Location: ?????
(54.9266°N, 38.5527°E)
Time: 10:06:04
(UTC+00:00)

Cosmos 2360 Rocket - Visible Passes

Search period start: 24 July 2024 00:00
Search period end: 03 August 2024 00:00
Orbit: 832 x 845 km, 71.0° (Epoch: 23 July)

Date Brightness Start Highest point End Pass type
(mag) Time Alt. Az. Time Alt. Az. Time Alt. Az.
25 Jul 4.6 00:17:46 10° SE 00:21:09 16° E 00:24:31 10° ENE visible
26 Jul 4.6 00:02:06 10° SE 00:05:15 15° E 00:08:25 10° ENE visible
26 Jul 4.6 23:46:27 10° SE 23:49:22 14° E 23:52:18 10° ENE visible
27 Jul 4.6 23:30:50 10° SE 23:33:30 14° E 23:36:10 10° ENE visible
28 Jul 4.6 23:15:16 10° ESE 23:17:37 13° E 23:19:58 10° ENE visible
29 Jul 4.6 22:59:45 10° ESE 23:01:45 12° E 23:03:44 10° ENE visible
30 Jul 2.7 00:39:00 10° SSW 00:44:32 57° ESE 00:50:06 10° NE visible
30 Jul 4.6 22:44:20 10° ESE 22:45:52 11° E 22:47:23 10° ENE visible
31 Jul 2.8 00:23:07 10° S 00:28:36 54° ESE 00:34:08 10° NE visible
31 Jul 4.7 22:29:12 10° E 22:29:59 10° E 22:30:46 10° E visible
01 Aug 2.8 00:07:12 10° S 00:12:40 51° ESE 00:18:10 10° NE visible
01 Aug 2.9 23:51:35 11° S 23:56:45 49° ESE 00:02:11 10° NE visible
02 Aug 2.9 23:36:11 14° S 23:40:49 46° ESE 23:46:13 10° NE visible
